Home   Weather   Bournemouth   Past weeks

Flag for United Kingdom Past Weather in Bournemouth, England, United Kingdom — Yesterday and Last 2 Weeks

Now
64 °F

Rain. Scattered clouds.


Feels Like: 64 °F
Forecast: 55 / 62 °F
Wind: 15 mph from Southwest

Location: Bournemouth Airport

Current Time: Sep 28, 2016 at 4:26:55 PM

Latest Report: Sep 28, 2016 at 3:50 PM


Visibility: N/A

Pressure: 30.24 "Hg

Humidity: 83%

Dew Point: 59 °F

Location of BournemouthLocation

Past Weather in Bournemouth — Graph

°F

Bournemouth Temperature Yesterday

Maximum temperature yesterday: 66 °F (at 5:50 PM)
Minimum temperature yesterday: 54 °F (at 11:20 PM)
Average temperature yesterday: 62 °F

High & Low Weather Summary for the Past Weeks

 TemperatureHumidityPressure
High81 °F (Sep 15, 12:50 PM)100% (Sep 19, 7:20 AM)30.30 "Hg (Sep 19, 7:20 AM)
Low41 °F (Sep 23, 5:50 AM)51% (Sep 15, 11:20 AM)29.65 "Hg (Sep 14, 5:50 AM)
Average62 °F80%30.06 "Hg
* Reported Sep 13 3:20 PM — Sep 28 3:20 PM, Bournemouth, Weather by CustomWeather, © 2016

Note: Actual official high and low records may vary slightly from our data, if they occured in-between our weather recording intervals... More about our weather records

Advertising

Bournemouth Weather History for the Previous 24 Hours

Scroll right to see more
 ConditionsComfort  
Time TempWeatherWind HumidityBarometerVisibility
3:20 PM
Wed, Sep 28
66 °FScattered clouds.12 mph78%30.27 "HgN/A
2:50 PM64 °FPartly sunny.15 mph83%30.27 "HgN/A
2:20 PM66 °FPartly sunny.13 mph78%30.27 "HgN/A
1:50 PM66 °FScattered clouds.14 mph78%30.27 "HgN/A
1:20 PM66 °FScattered clouds.13 mph78%30.27 "HgN/A
12:50 PM68 °FScattered clouds.14 mph69%30.30 "HgN/A
12:20 PM66 °FPartly sunny.10 mph73%30.30 "HgN/A
11:50 AM68 °FScattered clouds.9 mph73%30.30 "HgN/A
11:20 AM66 °FPassing clouds.9 mph73%30.30 "HgN/A
10:50 AM64 °FSunny.8 mph78%30.30 "Hg10 mi
10:20 AM63 °FSunny.9 mph83%30.30 "Hg10 mi
9:50 AM63 °FSunny.8 mph83%30.30 "Hg10 mi
9:20 AM61 °FSunny.6 mph88%30.30 "Hg10 mi
8:50 AM57 °FSunny.3 mph94%30.30 "Hg10 mi
8:20 AM57 °FSunny.6 mph94%30.27 "Hg10 mi
7:50 AM54 °FSunny.6 mph100%30.30 "Hg10 mi
7:20 AM52 °FFog.2 mph100%30.30 "HgN/A
6:20 AM50 °FClear.3 mph100%30.27 "Hg10 mi
5:50 AM48 °FClear.5 mph100%30.27 "Hg5 mi
12:20 AM54 °FClear.2 mph100%30.27 "Hg10 mi
11:50 PM
Tue, Sep 27
54 °FFog.3 mph100%30.27 "HgN/A
11:20 PM54 °FFog.3 mph100%30.27 "Hg6 mi
10:50 PM55 °FClear.3 mph100%30.27 "Hg10 mi
10:20 PM57 °FClear.6 mph94%30.27 "Hg10 mi
9:50 PM55 °FClear.5 mph100%30.27 "Hg10 mi
9:20 PM59 °FClear.3 mph94%30.27 "Hg10 mi
8:50 PM61 °FPassing clouds.5 mph94%30.27 "HgN/A
8:20 PM61 °FPassing clouds.6 mph94%30.24 "HgN/A
7:50 PM63 °FPartly cloudy.6 mph94%30.24 "HgN/A
7:20 PM63 °FPartly cloudy.6 mph94%30.24 "HgN/A
6:50 PM64 °FBroken clouds.6 mph88%30.21 "HgN/A
6:20 PM64 °FPartly sunny.8 mph88%30.21 "HgN/A
5:50 PM66 °FBroken clouds.7 mph83%30.18 "HgN/A
5:20 PM64 °FBroken clouds.8 mph88%30.18 "HgN/A
4:50 PM64 °FPartly sunny.9 mph88%30.21 "HgN/A
4:20 PM64 °FPartly sunny.13 mph88%30.21 "HgN/A
Weather by CustomWeather, © 2016

See weather overviewHow to use our weather pages